Location: Climax
(33.2048°N, 96.4497°W)
Time: 12:39:31
(UTC+00:00)

Cosmos 1805 Rocket - Pass Details

Date: 11 July 2022
Orbit: 605 x 629 km, 82.5° (Epoch: 10 August)

Event Time Altitude Azimuth Distance (km) Brightness Sun altitude
Exits shadow 09:23:12 32° 288° (WNW) 1,062 4.5 -21.2°
Drops below altitude 10° 09:26:53 10° 345° (NNW) 1,978 6.5 -20.7°
Sets 09:29:17 0° 355° (N) 2,883 7.6 -20.3°
